Douglas, WY

3:40 PM MDT on August 30, 2016 (GMT -0600)
Converse County

Weather History for KDGW - July, 2013

Change the Weather History Date:

Friday, July 26, 2013

  Actual Average Record
Temperature  
Mean Temperature 71 °F 72 °F  
Max Temperature 88 °F 89 °F 101 °F (2008)
Min Temperature 53 °F 55 °F 50 °F (2004)
Cooling Degree Days 6 8  
Month to date cooling degree days 253 167  
Year to date cooling degree days 375 244  
Since 1 June cooling degree days 359 238  
Growing Degree Days 20 (Base 50)    
Moisture  
Dew Point 48 °F    
Average Humidity 54    
Maximum Humidity 83    
Minimum Humidity 25    
Precipitation  
Precipitation 0.01 in 0.04 in 0.16 in (2005)
Month to date precipitation 0.22 1.18  
Year to date precipitation 5.41 8.73  
Sea Level Pressure  
Sea Level Pressure 30.07 in    
Wind  
Wind Speed 10 mph (ESE)    
Max Wind Speed 23 mph    
Max Gust Speed 29 mph    
Visibility 10 miles    
Events      
T = Trace of Precipitation, MM = Missing Value Source: NWS Daily Summary

Daily Weather History Graph

Daily Weather History Graph

Search for Another Location

Airport or City:

Trip Planner

Search our weather history database for the weather conditions in past years. The results will help you decide how hot, cold, wet, or windy it might be!

Date:

Astronomy

Jul. 26, 2013 Rise Set
Actual Time 5:47 AM MDT 8:28 PM MDT
Civil Twilight 5:14 AM MDT 9:00 PM MDT
Nautical Twilight 4:33 AM MDT 9:41 PM MDT
Astronomical Twilight 3:46 AM MDT 10:28 PM MDT
Moon 10:34 PM MDT (7/26) 10:34 AM MDT (7/26)
Length of Visible Light 15h 46m
Length of Day
14h 41m
Waning Gibbous, 79% of the Moon is Illuminated
Jul 26
Waning Gibbous
Jul 29
Last Quarter
Aug 6
New
Aug 14
First Quarter
Aug 20
Full

Hourly Weather History & Observations

Time (MDT) Temp. Dew Point Humidity Pressure Visibility Wind Dir Wind Speed Gust Speed Precip Events Conditions
12:53 AM 61.0 °F 46.0 °F 58% 30.12 in 10.0 mi SE 5.8 mph - N/A   Clear
1:53 AM 61.0 °F 45.0 °F 56% 30.11 in 10.0 mi Calm Calm - N/A   Clear
2:53 AM 59.0 °F 46.0 °F 62% 30.11 in 10.0 mi East 4.6 mph - N/A   Clear
3:53 AM 57.0 °F 48.0 °F 72% 30.10 in 10.0 mi ESE 4.6 mph - N/A   Clear
4:53 AM 55.9 °F 48.0 °F 75% 30.11 in 10.0 mi Calm Calm - N/A   Clear
5:53 AM 54.0 °F 48.0 °F 80% 30.12 in 10.0 mi SE 3.5 mph - N/A   Clear
6:53 AM 59.0 °F 48.9 °F 69% 30.13 in 10.0 mi Calm Calm - N/A   Clear
7:53 AM 63.0 °F 48.0 °F 58% 30.15 in 10.0 mi ENE 18.4 mph 21.9 mph N/A   Clear
8:53 AM 64.9 °F 50.0 °F 58% 30.17 in 10.0 mi ESE 13.8 mph - N/A   Clear
9:53 AM 69.1 °F 50.0 °F 51% 30.15 in 10.0 mi SE 13.8 mph - N/A   Clear
10:53 AM 73.9 °F 50.0 °F 43% 30.14 in 10.0 mi SSE 13.8 mph - N/A   Clear
11:53 AM 78.1 °F 48.9 °F 36% 30.10 in 10.0 mi SE 13.8 mph - N/A   Clear
12:53 PM 80.1 °F 48.0 °F 32% 30.08 in 10.0 mi SSE 4.6 mph - N/A   Clear
1:53 PM 84.0 °F 46.9 °F 27% 30.04 in 10.0 mi ESE 8.1 mph - N/A   Clear
2:53 PM 84.0 °F 46.0 °F 26% 30.03 in 10.0 mi South 8.1 mph - N/A   Clear
3:53 PM 84.9 °F 44.1 °F 24% 30.01 in 10.0 mi ESE 10.4 mph - N/A   Clear
4:53 PM 86.0 °F 46.0 °F 25% 29.99 in 10.0 mi ESE 10.4 mph - N/A   Partly Cloudy
5:53 PM 84.9 °F 46.0 °F 26% 29.98 in 10.0 mi Variable 4.6 mph - 0.01 in   Clear
6:53 PM 82.9 °F 46.9 °F 28% 29.97 in 10.0 mi SE 9.2 mph - N/A   Clear
7:53 PM 77.0 °F 50.0 °F 39% 29.99 in 10.0 mi East 17.3 mph 20.7 mph N/A   Clear
8:53 PM 70.0 °F 51.1 °F 51% 30.02 in 10.0 mi East 19.6 mph 26.5 mph N/A   Clear
9:53 PM 66.9 °F 51.1 °F 57% 30.05 in 10.0 mi East 17.3 mph 23.0 mph N/A   Clear
10:53 PM 63.0 °F 50.0 °F 63% 30.05 in 10.0 mi East 10.4 mph - N/A   Clear
11:53 PM 61.0 °F 50.0 °F 67% 30.06 in 10.0 mi East 10.4 mph - N/A   Clear